Terug naar catalogus

COSMOS 2527

GLONASS

ActiefNavigatieMEO
NORAD 43508·PAYLOAD·🇷🇺 Russia

Gelanceerd Jun 16, 2018 vanaf Plesetsk Cosmodrome

Loading…

Volgende Passages (komende 24 uur)

TLE

VersSource: CelesTrak SupGP

Epoch: Sep 14, 2026, 23:59 UTC

1 43508C 18053A   26257.99979167  .00000000  00000+0  00000+0 0  2571
2 43508  65.6327  70.9141 0007392 213.2742   6.2270  2.13102274    15

Volg COSMOS 2527 in realtime met AllMySat

Download on the App Store